Regional Weather Roundup
Issued by NWS Cleveland, OH

Home | Current Version | Previous Version | Graphics & Text | Print | Product List | Glossary On
Versions: 1 2 3 4 5 6 7 8 9 10 11 12 13 14 15 16 17 18 19 20 21 22 23 24 25 26 27 28 29 30 31 32 33 34 35 36 37 38 39 40 41 42 43 44 45 46 47 48 49 50
000
ASUS41 KCLE 020010
RWRCLE
OHIO REGIONAL WEATHER ROUNDUP
NATIONAL WEATHER SERVICE WILMINGTON, OH
800 PM EDT WED APR 01 2015

NOTE: "FAIR" INDICATES FEW OR NO CLOUDS BELOW 12,000 FEET WITH NO
SIGNIFICANT WEATHER AND/OR OBSTRUCTIONS TO VISIBILITY.

OHZ001>008-015>018-024>027-034-035-043-044-020100-
   NORTHWEST OHIO

CITY           SKY/WX    TMP DP  RH WIND       PRES   REMARKS
DEFIANCE       CLEAR     61  35  37 S7        30.01F
FINDLAY        CLEAR     55  34  45 S9        30.03F
TOLEDO EXPRESS CLEAR     60  32  34 S5        30.01F
TOLEDO EXEC    CLEAR     55  34  45 S8        30.03S
LIMA           CLEAR     60  34  37 S7        30.04F
$$

OHZ009>014-019>023-028>033-038-089-020100-
   NORTHEAST OHIO

CITY           SKY/WX    TMP DP  RH WIND       PRES   REMARKS
CLE-HOPKINS    PTCLDY    49  33  54 NE3       30.10F
CLE-LAKEFRONT  CLEAR     39  32  76 NE6       30.07F
CUY CO. ARPT   PTCLDY    52  36  54 SE6       30.08F
LORAIN-ELYRIA  CLEAR     50  37  61 E7        30.07S
ASHTABULA      CLEAR     45  32  60 E3        30.09F
AKRON-CANTON   PTCLDY    53  29  39 SW3       30.09F
WOOSTER        CLEAR     51  35  54 S3        30.09S
MANSFIELD      CLEAR     54  33  45 S7        30.07F
YOUNGSTOWN     PTCLDY    53  30  41 S3        30.09F
$$

OHZ042-051>053-060>062-070>072-077>081-020100-
  SOUTHWEST OHIO

CITY           SKY/WX    TMP DP  RH WIND       PRES   REMARKS
CINC-COVINGTON MOCLDY    59  30  33 SE8       30.07F
CINC-LUNKEN    CLEAR     60  29  30 SE6       30.07F
HAMILTON       PTCLDY    64  30  27 VRB3      30.07F
DAYTON         MOCLDY    60  32  34 S8        30.07F
WRIGHT-PAT AFB CLEAR     60  31  32 S10       30.07S
DAYTON GENERAL PTCLDY    59  30  33 SE7       30.07S
WILMINGTON     CLEAR     56  31  38 S5        30.08F
$$

OHZ036-037-039>041-045>050-054>059-063>069-073>076-082>088-020100-
  CENTRAL AND SOUTHEAST OHIO

CITY           SKY/WX    TMP DP  RH WIND       PRES   REMARKS
COLUMBUS       PTCLDY    59  31  34 S6        30.10R
OSU AIRPORT    CLEAR     59  32  36 S8        30.09R
BOLTON FIELD   CLEAR    N/A N/A N/A S8        30.10R
RICKENBACK AFB CLEAR     57  32  39 S3        30.09S
NEWARK         CLEAR     57  33  40 S3        30.10R
MARION         CLEAR     55  31  39 S6        30.07F
LANCASTER      CLEAR     57  31  37 CALM      30.11S
ZANESVILLE     CLEAR     57  28  33 CALM      30.11R
NEW PHILLY     CLEAR     58  31  35 CALM      30.11R
$$


USA.gov is the U.S. government's official web portal to all federal, state and local government web resources and services.